Retour au catalogue

STARLINK-34032

ActifCommunicationsVLEO
NORAD 63853·PAYLOAD·🇺🇸 United States

Lancé May 7, 2025 depuis Cape Canaveral Space Force Station

Loading…

Prochains Passages (prochaines 24 heures)

TLE

FraisSource: CelesTrak SupGP

Époque: Sep 15, 2026, 02:18 UTC

1 63853C 25093T   26258.09631944  .00010394  00000+0  37629-3 0  2587
2 63853  43.0025  88.0561 0001069 288.8055 347.4149 15.27588990    18

Suivez STARLINK-34032 en temps réel avec AllMySat

Download on the App Store